Location: Sungai Bunut
(2.6333°N, 113.7333°E)
Time: 18:53:02
(UTC+00:00)

Cosmos 1975 Rocket - Pass Details

Date: 16 October 2021
Orbit: 602 x 634 km, 82.5° (Epoch: 08 December)

Event Time Altitude Azimuth Distance (km) Brightness Sun altitude
Rises 21:43:01 0° 187° (S) 2,859 6.5 -7.2°
Reaches altitude 10° 21:45:13 10° 188° (S) 1,957 5.7 -6.7°
Maximum altitude 21:49:33 76° 273° (W) 633 3.0 -5.6°
Drops below altitude 10° 21:53:54 10° 359° (N) 1,969 5.6 -4.5°
Sets 21:56:07 0° 1° (N) 2,877 6.4 -4.0°
